SHT21Q EGKK-EGCC

Flight info

Callsign SHT21Q
Flight time 0h 39m
Altitude 24000
Route LAM N57 WELIN T420 ELVOS
Aircraft A320/M-SDE3FGHIRWY/LB1

Departure

Time 2026-04-17 13:18
Airport London Gatwick Airport (EGKK)

Arrival

Time 2026-04-17 13:57
Airport Manchester Airport (EGCC)
Time Latitude Longitude Altitude Speed Heading
2026-04-17 12:46 51.15892 -0.16774 213 ft 0 kts 206°
2026-04-17 13:02 51.15894 -0.16773 211 ft 2 kts 206°
2026-04-17 13:03 51.15909 -0.16761 212 ft 2 kts 208°
2026-04-17 13:03 51.15923 -0.16749 212 ft 2 kts 210°
2026-04-17 13:03 51.15937 -0.16736 209 ft 2 kts 216°
2026-04-17 13:03 51.15950 -0.16719 204 ft 2 kts 242°
2026-04-17 13:04 51.15952 -0.16696 210 ft 1 kts 298°
2026-04-17 13:04 51.15951 -0.16690 207 ft 0 kts 299°
2026-04-17 13:07 51.15955 -0.16702 204 ft 2 kts 299°
2026-04-17 13:07 51.15965 -0.16738 208 ft 5 kts 290°
2026-04-17 13:07 51.15975 -0.16803 210 ft 7 kts 281°
2026-04-17 13:07 51.15972 -0.16896 204 ft 10 kts 254°
2026-04-17 13:08 51.15940 -0.16997 212 ft 11 kts 230°
2026-04-17 13:08 51.15876 -0.17068 212 ft 12 kts 202°
2026-04-17 13:08 51.15819 -0.17117 210 ft 5 kts 235°
2026-04-17 13:08 51.15810 -0.17148 214 ft 4 kts 250°
2026-04-17 13:09 51.15802 -0.17206 211 ft 7 kts 262°
2026-04-17 13:09 51.15791 -0.17292 213 ft 9 kts 256°
2026-04-17 13:09 51.15776 -0.17402 213 ft 11 kts 258°
2026-04-17 13:09 51.15733 -0.17505 204 ft 12 kts 183°
2026-04-17 13:10 51.15641 -0.17469 210 ft 15 kts 167°
2026-04-17 13:10 51.15533 -0.17433 206 ft 17 kts 167°
2026-04-17 13:10 51.15412 -0.17391 204 ft 19 kts 167°
2026-04-17 13:10 51.15314 -0.17355 212 ft 8 kts 167°
2026-04-17 13:11 51.15258 -0.17326 213 ft 9 kts 144°
2026-04-17 13:11 51.15247 -0.17222 213 ft 11 kts 76°
2026-04-17 13:11 51.15265 -0.17096 211 ft 13 kts 77°
2026-04-17 13:11 51.15286 -0.16945 204 ft 15 kts 77°
2026-04-17 13:12 51.15274 -0.16831 207 ft 8 kts 139°
2026-04-17 13:12 51.15237 -0.16811 214 ft 0 kts 169°
2026-04-17 13:16 51.15234 -0.16810 214 ft 2 kts 169°
2026-04-17 13:16 51.15214 -0.16804 213 ft 4 kts 168°
2026-04-17 13:16 51.15174 -0.16791 203 ft 8 kts 174°
2026-04-17 13:16 51.15117 -0.16844 206 ft 11 kts 242°
2026-04-17 13:17 51.15111 -0.16874 209 ft 0 kts 256°
2026-04-17 13:17 51.15096 -0.16972 213 ft 35 kts 256°
2026-04-17 13:17 51.14998 -0.17704 213 ft 96 kts 258°
2026-04-17 13:17 51.14815 -0.19013 214 ft 142 kts 258°
2026-04-17 13:18 51.14614 -0.20610 645 ft 153 kts 255°
2026-04-17 13:18 51.14417 -0.22304 1287 ft 156 kts 254°
2026-04-17 13:18 51.14187 -0.24029 1795 ft 167 kts 255°
2026-04-17 13:18 51.13914 -0.25957 2104 ft 189 kts 255°
2026-04-17 13:19 51.13740 -0.28171 2466 ft 215 kts 272°
2026-04-17 13:19 51.14291 -0.30396 3293 ft 227 kts 303°
2026-04-17 13:19 51.15566 -0.31975 3881 ft 242 kts 335°
2026-04-17 13:19 51.17249 -0.32149 4006 ft 249 kts 13°
2026-04-17 13:20 51.18720 -0.30695 4037 ft 254 kts 52°
2026-04-17 13:20 51.19418 -0.28195 4040 ft 249 kts 83°
2026-04-17 13:20 51.19698 -0.25461 4039 ft 250 kts 83°
2026-04-17 13:20 51.20016 -0.22725 4038 ft 252 kts 82°
2026-04-17 13:21 51.20353 -0.19976 4038 ft 258 kts 81°
2026-04-17 13:21 51.20734 -0.17011 4037 ft 280 kts 81°
2026-04-17 13:21 51.21139 -0.13949 4117 ft 286 kts 80°
2026-04-17 13:21 51.21559 -0.10842 4839 ft 292 kts 80°
2026-04-17 13:22 51.21985 -0.07681 5003 ft 290 kts 80°
2026-04-17 13:22 51.22403 -0.04543 5030 ft 288 kts 80°
2026-04-17 13:22 51.22815 -0.01412 5032 ft 288 kts 80°
2026-04-17 13:22 51.23223 0.01725 4861 ft 288 kts 80°
2026-04-17 13:23 51.23631 0.04862 4837 ft 288 kts 80°
2026-04-17 13:23 51.24030 0.07944 4815 ft 288 kts 80°
2026-04-17 13:23 51.24434 0.11082 4786 ft 288 kts 80°
2026-04-17 13:23 51.24836 0.14210 4760 ft 287 kts 80°
2026-04-17 13:24 51.25238 0.17344 4746 ft 289 kts 80°
2026-04-17 13:24 51.25643 0.20512 5475 ft 291 kts 79°
2026-04-17 13:24 51.26031 0.23690 6450 ft 292 kts 80°
2026-04-17 13:24 51.26408 0.26906 7237 ft 296 kts 81°
2026-04-17 13:25 51.26785 0.30170 8058 ft 300 kts 81°
2026-04-17 13:25 51.27235 0.33408 8837 ft 306 kts 70°
2026-04-17 13:25 51.28448 0.36196 9567 ft 310 kts 37°
2026-04-17 13:25 51.30375 0.37641 10262 ft 307 kts
2026-04-17 13:26 51.32468 0.37379 10853 ft 307 kts 339°
2026-04-17 13:26 51.34580 0.36318 11396 ft 329 kts 337°
2026-04-17 13:26 51.36831 0.35141 11561 ft 351 kts 336°
2026-04-17 13:26 51.39070 0.33507 12016 ft 356 kts 327°
2026-04-17 13:27 51.41237 0.31527 12618 ft 361 kts 327°
2026-04-17 13:27 51.43462 0.29701 13272 ft 366 kts 329°
2026-04-17 13:27 51.45777 0.27926 13950 ft 371 kts 330°
2026-04-17 13:27 51.48148 0.26228 14541 ft 375 kts 332°
2026-04-17 13:28 51.50558 0.24590 15264 ft 371 kts 333°
2026-04-17 13:28 51.52891 0.23061 16565 ft 352 kts 332°
2026-04-17 13:28 51.55101 0.21619 17886 ft 331 kts 332°
2026-04-17 13:28 51.57166 0.20260 19151 ft 309 kts 330°
2026-04-17 13:29 51.59087 0.18980 20123 ft 298 kts 329°
2026-04-17 13:29 51.60991 0.17684 20785 ft 297 kts 329°
2026-04-17 13:29 51.62870 0.16303 21326 ft 295 kts 323°
2026-04-17 13:29 51.64613 0.14576 21844 ft 293 kts 315°
2026-04-17 13:30 51.66191 0.12526 22331 ft 290 kts 308°
2026-04-17 13:30 51.67616 0.10229 22821 ft 290 kts 305°
2026-04-17 13:30 51.69038 0.07883 23321 ft 293 kts 306°
2026-04-17 13:30 51.70458 0.05550 23793 ft 296 kts 306°
2026-04-17 13:31 51.71931 0.03132 24083 ft 304 kts 306°
2026-04-17 13:31 51.73431 0.00648 24148 ft 320 kts 306°
2026-04-17 13:31 51.75026 -0.02004 24114 ft 338 kts 306°
2026-04-17 13:31 51.76704 -0.04796 24101 ft 355 kts 306°
2026-04-17 13:32 51.78472 -0.07724 24095 ft 372 kts 307°
2026-04-17 13:32 51.80323 -0.10776 24096 ft 388 kts 307°
2026-04-17 13:32 51.82251 -0.13950 24107 ft 403 kts 307°
2026-04-17 13:32 51.84251 -0.17247 24137 ft 417 kts 307°
2026-04-17 13:33 51.86294 -0.20627 24141 ft 430 kts 307°
2026-04-17 13:33 51.88405 -0.24127 24139 ft 437 kts 307°
2026-04-17 13:33 51.90533 -0.27656 24139 ft 439 kts 308°
2026-04-17 13:33 51.92673 -0.31199 24137 ft 439 kts 308°
2026-04-17 13:34 51.94817 -0.34751 24140 ft 439 kts 308°
2026-04-17 13:34 51.96955 -0.38304 24140 ft 439 kts 307°
2026-04-17 13:34 51.99062 -0.41822 24138 ft 439 kts 307°
2026-04-17 13:34 52.01196 -0.45406 24137 ft 439 kts 307°
2026-04-17 13:35 52.03322 -0.48987 24140 ft 439 kts 307°
2026-04-17 13:35 52.05415 -0.52517 24155 ft 439 kts 307°
2026-04-17 13:35 52.07536 -0.56093 24150 ft 439 kts 307°
2026-04-17 13:35 52.09660 -0.59674 24149 ft 439 kts 307°
2026-04-17 13:36 52.11791 -0.63268 24144 ft 439 kts 307°
2026-04-17 13:36 52.13911 -0.66847 24146 ft 438 kts 307°
2026-04-17 13:36 52.16011 -0.70397 24137 ft 438 kts 307°
2026-04-17 13:36 52.18114 -0.73959 24138 ft 439 kts 307°
2026-04-17 13:37 52.20230 -0.77554 24130 ft 438 kts 307°
2026-04-17 13:37 52.22347 -0.81152 24121 ft 433 kts 307°
2026-04-17 13:37 52.24477 -0.84504 24107 ft 419 kts 313°
2026-04-17 13:37 52.26845 -0.87309 24115 ft 429 kts 321°
2026-04-17 13:38 52.29437 -0.89909 24127 ft 444 kts 321°
2026-04-17 13:38 52.32094 -0.92572 24099 ft 450 kts 321°
2026-04-17 13:38 52.34750 -0.95222 24102 ft 452 kts 322°
2026-04-17 13:38 52.37443 -0.97902 24102 ft 453 kts 322°
2026-04-17 13:39 52.40150 -1.00589 24110 ft 453 kts 321°
2026-04-17 13:39 52.42818 -1.03242 24086 ft 453 kts 321°
2026-04-17 13:39 52.45509 -1.05930 24088 ft 452 kts 321°
2026-04-17 13:39 52.48199 -1.08628 24082 ft 452 kts 321°
2026-04-17 13:40 52.50885 -1.11330 24088 ft 453 kts 321°
2026-04-17 13:40 52.53570 -1.14040 24103 ft 453 kts 321°
2026-04-17 13:40 52.56210 -1.16703 24076 ft 443 kts 321°
2026-04-17 13:40 52.58821 -1.19330 24085 ft 437 kts 321°
2026-04-17 13:41 52.61410 -1.21946 24082 ft 435 kts 321°
2026-04-17 13:41 52.63985 -1.24551 23561 ft 434 kts 321°
2026-04-17 13:41 52.66584 -1.27194 22155 ft 441 kts 321°
2026-04-17 13:41 52.69200 -1.29858 20734 ft 440 kts 321°
2026-04-17 13:42 52.71761 -1.32457 19596 ft 434 kts 322°
2026-04-17 13:42 52.74284 -1.35009 18965 ft 417 kts 322°
2026-04-17 13:42 52.76732 -1.37484 18346 ft 409 kts 322°
2026-04-17 13:42 52.79145 -1.39942 17658 ft 405 kts 322°
2026-04-17 13:43 52.81532 -1.42390 17041 ft 403 kts 322°
2026-04-17 13:43 52.83903 -1.44829 16420 ft 400 kts 322°
2026-04-17 13:43 52.86266 -1.47260 15809 ft 397 kts 322°
2026-04-17 13:43 52.88580 -1.49639 15206 ft 394 kts 322°
2026-04-17 13:44 52.90899 -1.52020 14613 ft 391 kts 322°
2026-04-17 13:44 52.93212 -1.54391 13991 ft 388 kts 322°
2026-04-17 13:44 52.95503 -1.56743 13342 ft 385 kts 322°
2026-04-17 13:44 52.97775 -1.59080 12761 ft 380 kts 322°
2026-04-17 13:45 52.99974 -1.61351 12323 ft 372 kts 321°
2026-04-17 13:45 53.02135 -1.63583 12177 ft 356 kts 321°
2026-04-17 13:45 53.04196 -1.65720 12047 ft 341 kts 319°
2026-04-17 13:45 53.05973 -1.68134 11901 ft 319 kts 307°
2026-04-17 13:46 53.07410 -1.70818 11565 ft 312 kts 304°
2026-04-17 13:46 53.09202 -1.73125 10679 ft 340 kts 326°
2026-04-17 13:46 53.11397 -1.74781 10167 ft 344 kts 330°
2026-04-17 13:46 53.13564 -1.76309 10044 ft 333 kts 330°
2026-04-17 13:47 53.15665 -1.77768 9902 ft 318 kts 330°
2026-04-17 13:47 53.17638 -1.79114 9625 ft 303 kts 330°
2026-04-17 13:47 53.19574 -1.80430 9109 ft 298 kts 330°
2026-04-17 13:47 53.21486 -1.81735 8539 ft 295 kts 330°
2026-04-17 13:48 53.23377 -1.83038 7990 ft 292 kts 330°
2026-04-17 13:48 53.24620 -1.83900 7625 ft 290 kts 330°
2026-04-17 13:48 53.27020 -1.85537 7404 ft 270 kts 330°
2026-04-17 13:48 53.28721 -1.86689 7117 ft 259 kts 330°
2026-04-17 13:49 53.30365 -1.87798 7026 ft 256 kts 330°
2026-04-17 13:49 53.31487 -1.88557 6986 ft 256 kts 330°
2026-04-17 13:49 53.33114 -1.89649 6597 ft 254 kts 330°
2026-04-17 13:49 53.34754 -1.90756 6169 ft 252 kts 330°
2026-04-17 13:50 53.36377 -1.91861 5746 ft 249 kts 330°
2026-04-17 13:50 53.37933 -1.92898 5585 ft 232 kts 331°
2026-04-17 13:50 53.39392 -1.93835 5458 ft 218 kts 330°
2026-04-17 13:50 53.40781 -1.94717 5270 ft 210 kts 330°
2026-04-17 13:51 53.42130 -1.95568 4973 ft 208 kts 330°
2026-04-17 13:51 53.43493 -1.96420 4487 ft 210 kts 330°
2026-04-17 13:51 53.44859 -1.97274 4112 ft 207 kts 330°
2026-04-17 13:51 53.46194 -1.98133 3824 ft 202 kts 327°
2026-04-17 13:52 53.47206 -1.99535 3495 ft 179 kts 287°
2026-04-17 13:52 53.47457 -2.01444 3475 ft 166 kts 256°
2026-04-17 13:52 53.47052 -2.03191 3469 ft 158 kts 230°
2026-04-17 13:52 53.46363 -2.04629 3445 ft 158 kts 229°
2026-04-17 13:53 53.45680 -2.06054 3249 ft 156 kts 229°
2026-04-17 13:53 53.45001 -2.07471 3052 ft 153 kts 229°
2026-04-17 13:53 53.44360 -2.08812 2873 ft 146 kts 229°
2026-04-17 13:53 53.43723 -2.10139 2706 ft 145 kts 230°
2026-04-17 13:54 53.42478 -2.12734 2325 ft 142 kts 229°
2026-04-17 13:54 53.41852 -2.14037 2140 ft 145 kts 229°
2026-04-17 13:55 53.40594 -2.16683 1729 ft 146 kts 230°
2026-04-17 13:55 53.39983 -2.18006 1440 ft 141 kts 229°
2026-04-17 13:55 53.38798 -2.20438 1152 ft 130 kts 227°
2026-04-17 13:56 53.37638 -2.22802 782 ft 135 kts 231°
2026-04-17 13:56 53.37047 -2.24032 670 ft 132 kts 226°
2026-04-17 13:56 53.36469 -2.25216 430 ft 134 kts 229°
2026-04-17 13:57 53.35893 -2.26428 273 ft 126 kts 230°
2026-04-17 13:57 53.35411 -2.27415 259 ft 88 kts 231°
2026-04-17 13:57 53.34985 -2.28354 236 ft 21 kts 247°
2026-04-17 13:58 53.34948 -2.28579 235 ft 20 kts 260°
2026-04-17 13:58 53.35026 -2.28720 233 ft 2 kts 45°
2026-04-17 13:58 53.35027 -2.28718 232 ft 0 kts 46°
2026-04-17 13:59 53.35030 -2.28712 232 ft 1 kts 45°
2026-04-17 13:59 53.35031 -2.28711 231 ft 0 kts 45°
2026-04-17 13:59 53.35052 -2.28675 232 ft 7 kts 48°
2026-04-17 14:00 53.35089 -2.28601 233 ft 11 kts 49°
2026-04-17 14:00 53.35153 -2.28471 230 ft 17 kts 53°
2026-04-17 14:00 53.35220 -2.28323 233 ft 15 kts 51°
2026-04-17 14:00 53.35294 -2.28225 236 ft 12 kts 30°
2026-04-17 14:01 53.35358 -2.28181 238 ft 9 kts 16°
2026-04-17 14:01 53.35408 -2.28162 238 ft 7 kts 11°
2026-04-17 14:01 53.35453 -2.28148 238 ft 6 kts 12°
2026-04-17 14:01 53.35490 -2.28128 239 ft 5 kts 22°
2026-04-17 14:02 53.35520 -2.28099 239 ft 5 kts 36°
2026-04-17 14:02 53.35541 -2.28069 239 ft 5 kts 42°
2026-04-17 14:02 53.35568 -2.28020 240 ft 6 kts 50°
2026-04-17 14:02 53.35599 -2.27960 244 ft 7 kts 51°
2026-04-17 14:03 53.35642 -2.27888 247 ft 10 kts 30°
2026-04-17 14:03 53.35722 -2.27879 247 ft 14 kts
2026-04-17 14:03 53.35831 -2.27860 247 ft 18 kts
2026-04-17 14:03 53.35956 -2.27847 247 ft 16 kts 353°
2026-04-17 14:04 53.36048 -2.27971 247 ft 20 kts 314°
2026-04-17 14:04 53.36155 -2.28151 247 ft 23 kts 314°
2026-04-17 14:04 53.36240 -2.28294 247 ft 17 kts 315°
2026-04-17 14:04 53.36329 -2.28444 247 ft 17 kts 317°
2026-04-17 14:05 53.36433 -2.28513 247 ft 16 kts 325°
2026-04-17 14:05 53.36513 -2.28646 247 ft 16 kts 314°
2026-04-17 14:05 53.36585 -2.28786 247 ft 16 kts 300°
2026-04-17 14:05 53.36657 -2.28903 247 ft 14 kts 336°
2026-04-17 14:06 53.36729 -2.29013 247 ft 15 kts 315°
2026-04-17 14:06 53.36801 -2.29034 247 ft 10 kts 20°
2026-04-17 14:06 53.36859 -2.28954 247 ft 12 kts 44°
2026-04-17 14:06 53.36889 -2.28890 247 ft 6 kts 78°
2026-04-17 14:07 53.36868 -2.28840 247 ft 3 kts 135°
2026-04-17 14:07 53.36867 -2.28839 247 ft 0 kts 135°
2026-04-17 14:07 53.36861 -2.28830 247 ft 0 kts 136°